Location: Le Rocchette
(44.3500°N, 7.8333°E)
Time: 16:52:24
(UTC+00:00)

STARLINK-57 - Pass Details

Date: 17 November 2019
Orbit: 529 x 530 km, 53.0° (Epoch: 14 December)

Event Time Altitude Azimuth Distance (km) Brightness Sun altitude
Exits shadow 03:41:26 13° 148° (SSE) 1,563 6.2 -29.4°
Drops below altitude 10° 03:44:52 10° 94° (E) 1,769 7.1 -28.8°
Enters shadow 04:47:07 -61° 234° (SW) 11,697 10.3 -17.7°
Maximum altitude 05:21:06 88° 149° (SSE) 532 3.5 -11.8°
